Temperature
19 19 19 18 18 17 17 17 17 16 16 16 16 15 15 15 15 15 15 15 15 15 15 15 15 15 15 15 15 15 15 15 15 15 15 14 14 14 14 14 14 14 14
20 19 19 18 18 17 17 17 17 16 16 16 16 15 15 15 15 15 15 15 15 15 15 15 15 15 15 15 15 15 15 15 14 14 14 14 14 14 14 14 14 14 14
20 19 19 19 18 18 17 17 17 16 16 16 16 15 15 15 15 15 15 15 15 15 15 15 15 15 15 15 14 14 14 14 14 14 14 14 14 14 14 14 14 14 14
20 19 19 19 18 18 17 17 17 16 16 16 16 16 16 16 15 15 15 15 15 15 15 15 15 15 15 14 14 14 14 14 14 14 14 14 14 14 14 14 14 14 14
20 19 19 18 18 18 17 17 17 17 16 16 16 16 16 16 16 15 15 15 15 15 15 15 15 15 15 14 14 14 14 14 14 14 14 14 14 14 14 14 14 14 14
20 19 18 18 18 18 17 17 17 17 17 17 17 17 17 16 16 16 15 15 15 15 15 15 15 15 15 14 14 14 14 14 14 14 13 13 14 14 14 14 14 14 14
19 18 18 17 17 17 17 17 17 17 17 18 18 18 17 17 16 16 16 15 15 15 15 15 15 15 15 14 14 14 14 14 14 14 14 14 14 14 14 14 14 14 14
19 18 17 17 17 17 17 17 17 17 18 18 18 18 18 17 17 17 16 16 15 15 15 15 15 15 15 14 14 14 14 14 14 14 14 14 14 14 14 14 14 14 14
18 17 16 16 16 16 16 16 17 17 18 18 18 18 18 18 17 17 16 16 16 16 15 15 15 15 15 15 14 14 14 14 14 14 14 14 14 14 14 14 14 14 14
17 17 16 16 16 16 16 16 17 17 18 18 18 18 18 18 17 17 17 16 16 16 16 16 15 15 15 15 14 14 14 14 14 14 14 14 14 14 14 14 14 14 14
17 16 16 16 16 16 16 16 17 17 17 18 18 18 18 18 17 17 17 16 16 16 16 16 15 15 15 15 15 14 14 14 14 14 14 14 14 14 14 14 14 14 14
16 16 16 16 16 16 16 16 17 17 17 18 18 18 18 18 17 17 17 16 16 16 16 16 15 15 15 15 15 14 14 14 14 14 14 14 14 14 14 14 14 14 14
17 16 16 16 16 16 16 16 16 17 17 18 18 18 18 18 17 17 17 17 16 16 16 16 16 15 15 15 15 14 14 14 14 14 14 13 13 14 14 14 14 14 14
16 16 16 15 15 15 16 16 16 17 17 17 18 18 18 18 17 17 17 17 17 16 16 16 16 15 15 15 15 14 14 14 14 14 13 13 13 13 13 14 14 14 14
16 16 16 15 15 15 15 15 16 16 16 17 17 17 17 17 17 17 17 16 16 16 16 16 16 15 15 15 15 14 14 14 14 13 13 13 13 13 13 13 13 13 13
16 16 16 15 15 15 15 15 15 15 16 16 16 16 17 17 17 17 16 16 16 16 16 16 15 15 15 15 14 14 14 14 13 13 13 13 13 13 13 13 13 13 13
16 16 16 15 15 15 15 15 15 15 15 15 16 16 16 16 16 16 16 16 16 15 15 15 15 15 14 14 14 14 13 13 13 13 13 13 13 13 13 13 13 13 12
16 16 16 15 15 15 15 15 15 15 15 15 15 15 15 15 15 15 15 15 15 15 15 14 14 14 14 14 13 13 13 13 13 13 12 12 12 12 12 12 12 12 12
16 16 16 16 15 15 15 15 15 15 15 15 15 15 15 15 15 15 15 15 14 14 14 14 14 13 13 13 13 12 12 12 12 12 12 12 12 12 12 12 12 12 12
17 16 16 16 15 15 15 15 15 14 15 14 14 14 14 14 14 14 14 14 14 13 13 13 13 13 13 12 12 12 12 12 12 12 12 12 12 12 12 12 11 11 11
17 16 16 16 15 15 15 15 15 15 15 15 15 15 14 14 14 14 14 14 14 13 13 13 13 12 12 12 12 12 12 11 12 12 11 11 11 11 11 11 11 11 11
17 16 16 16 15 15 15 15 15 15 15 15 15 14 14 14 14 14 14 14 13 13 13 13 12 12 12 12 12 11 11 11 12 12 12 12 12 11 11 11 11 11 10
16 16 16 16 16 15 15 15 15 14 14 14 14 14 14 14 14 14 14 13 13 13 13 13 12 12 12 12 12 11 11 11 12 12 12 12 12 11 11 11 11 10 10
16 16 16 15 15 15 15 15 15 14 14 15 14 14 14 14 14 14 13 13 13 13 12 12 12 12 12 12 12 11 11 11 11 11 11 11 11 11 11 11 10 10 9
15 15 15 15 15 15 14 14 14 14 14 14 14 14 14 14 13 13 13 13 13 12 12 12 12 12 12 11 11 11 11 11 10 10 10 11 11 11 10 10 10 9 9
13 14 14 14 14 14 14 14 13 13 13 13 13 13 13 13 13 13 13 12 12 12 12 12 12 11 11 11 11 11 10 10 10 10 10 10 10 10 9 9 9 8 8
Wind_Speed
9 16 22 21 20 20 19 18 17 16 16 16 16 15 15 14 13 12 12 12 12 13 14 15 15 15 15 15 15 16 16 16 15 15 14 14 14 14 14 14 13 13 14
12 20 23 22 21 20 20 18 17 17 16 15 15 15 13 12 12 11 12 12 12 14 15 15 15 15 15 15 15 15 15 15 14 13 12 12 12 13 13 12 11 11 12
16 19 23 22 21 21 20 19 18 17 16 15 15 14 12 11 11 11 12 12 13 15 15 15 15 14 14 14 14 14 13 11 10 8 9 8 10 12 12 12 12 12 12
19 19 21 23 22 21 20 19 18 17 16 15 14 13 12 11 11 12 13 13 14 15 15 15 14 13 13 13 12 12 10 8 7 6 6 7 9 12 13 12 12 12 12
16 18 21 23 22 21 20 19 18 17 16 15 13 12 11 11 11 13 14 14 15 15 15 14 13 12 12 11 11 11 10 10 11 12 10 9 10 13 13 13 13 13 13
12 17 21 23 22 22 20 19 18 18 16 15 13 12 12 12 12 14 14 15 15 15 14 13 12 11 10 10 9 10 10 12 14 13 12 11 11 13 13 13 14 14 13
12 16 21 23 22 22 20 19 19 18 16 14 13 12 12 12 13 14 14 15 14 14 14 12 11 10 8 8 8 9 11 14 15 14 12 11 11 12 12 13 13 13 14
14 16 20 23 22 21 20 19 19 17 16 14 13 13 13 13 14 14 14 14 14 14 13 12 11 9 7 6 6 8 11 12 12 12 12 11 11 11 11 12 12 12 12
15 14 15 19 21 21 21 20 19 17 16 14 13 13 13 14 14 14 13 14 14 13 12 11 10 8 6 5 4 6 8 10 12 11 10 11 11 11 11 11 11 11 11
12 11 12 15 17 18 19 20 20 18 16 15 14 14 14 14 13 13 13 13 13 13 12 11 9 8 6 4 3 4 7 10 10 10 10 11 11 10 10 10 10 10 10
12 10 10 12 14 16 16 18 19 18 17 15 15 15 14 13 12 11 12 13 13 12 12 11 9 8 7 5 4 3 5 8 10 10 11 11 11 10 9 9 9 9 10
13 11 9 10 12 14 14 15 15 14 15 15 15 15 13 12 11 10 11 12 13 12 11 10 9 8 7 6 5 3 4 7 9 10 11 12 11 10 10 9 9 9 9
13 12 11 9 12 12 10 12 12 12 13 14 15 15 13 12 10 10 10 11 12 11 10 9 9 8 8 7 7 6 5 7 10 11 12 13 12 11 11 10 9 9 9
12 12 12 10 10 11 12 11 11 10 11 11 14 15 13 9 8 9 10 11 11 11 10 9 8 9 9 9 10 8 7 8 11 13 14 15 14 13 12 11 10 10 9
11 11 12 11 11 10 10 9 10 10 11 13 14 15 15 10 7 9 10 11 12 12 11 9 9 9 9 10 11 10 9 10 12 14 15 17 16 15 14 13 12 11 11
10 10 10 11 11 11 8 7 8 11 13 13 13 16 17 14 12 10 9 10 12 13 13 12 11 9 8 8 8 10 10 11 13 15 16 18 18 17 16 14 14 13 12
9 9 9 10 9 10 9 8 9 11 12 12 13 17 18 17 15 13 9 8 12 15 14 12 10 9 6 6 6 8 9 10 13 15 17 17 18 19 18 17 16 15 14
8 8 8 8 9 9 8 7 7 10 11 11 13 14 17 18 18 14 8 8 14 14 12 7 5 5 6 5 5 4 5 8 11 14 16 17 18 18 19 19 18 17 16
9 9 9 8 8 8 7 6 7 8 8 9 11 12 14 16 17 14 10 10 13 10 8 6 6 5 6 6 5 5 4 4 7 11 12 16 18 19 19 20 20 20 19
8 7 8 7 6 6 5 4 4 4 4 7 8 10 13 13 15 14 9 10 11 7 7 6 6 6 5 5 5 5 5 5 5 6 10 14 16 19 20 20 19 20 20
4 5 5 6 5 5 4 4 4 5 4 4 5 9 11 12 13 11 7 7 8 8 9 9 7 7 6 4 3 3 4 4 6 6 7 8 12 17 19 20 19 19 19
5 4 4 4 4 4 4 4 3 3 3 4 3 6 10 10 11 10 8 7 7 8 9 9 8 5 5 6 5 3 4 4 5 7 6 7 9 12 14 18 18 19 19
4 3 3 3 3 3 3 2 1 1 0 1 3 4 5 8 9 10 9 7 7 8 9 10 10 9 8 7 6 5 5 7 4 3 5 6 6 6 8 13 16 18 19
3 2 3 3 3 2 2 3 3 4 4 4 3 3 3 5 6 8 8 8 7 7 8 9 9 9 8 7 5 6 5 4 5 4 3 3 5 7 7 8 12 15 17
4 4 3 4 4 3 3 3 3 3 3 2 1 2 3 3 4 5 6 5 6 7 8 8 8 9 8 8 7 5 6 4 4 5 6 3 3 4 5 5 6 9 14
4 4 4 5 4 4 4 3 2 2 1 0 1 2 2 2 2 3 4 4 4 5 6 7 7 8 8 9 8 6 6 5 6 7 9 6 4 2 2 1 2 4 7
Wind_Direction
155 159 154 151 147 144 141 138 135 130 126 122 118 114 112 110 108 106 106 106 105 103 100 95 90 89 88 89 89 90 90 88 87 85 81 78 80 85 85 81 77 76 77
148 156 153 150 147 146 143 139 136 133 130 125 121 117 115 114 112 113 112 111 111 108 102 97 93 92 93 95 95 95 93 91 89 87 82 80 83 87 86 86 85 82 79
145 153 152 150 147 145 142 140 136 134 130 126 123 119 117 117 118 121 119 115 114 110 105 100 97 95 96 98 98 97 94 91 89 87 82 79 86 91 90 87 85 82 80
146 152 153 149 146 144 142 140 137 134 130 126 123 121 121 122 123 126 124 120 117 113 108 105 102 100 100 100 98 92 83 79 87 103 95 81 87 90 88 86 85 83 81
143 149 153 148 146 145 143 140 138 135 131 127 125 124 125 127 129 130 126 121 118 117 115 112 109 106 104 101 96 85 75 79 96 102 98 88 86 88 86 84 84 84 83
135 145 152 148 147 145 143 142 140 136 133 130 129 128 128 130 131 130 127 125 123 124 122 119 117 114 109 104 94 81 80 97 102 101 95 91 89 91 87 85 84 84 84
136 145 152 148 147 146 145 144 141 139 137 136 135 136 134 134 133 134 132 132 131 132 130 128 126 123 118 108 92 82 93 109 107 103 98 95 96 95 90 88 87 85 85
142 147 154 150 149 149 149 146 143 142 142 142 142 143 140 138 138 139 140 141 139 140 140 138 136 135 131 120 99 90 102 114 114 109 106 105 105 101 97 96 93 92 90
143 146 151 152 153 152 151 148 147 147 146 147 147 146 143 142 143 145 148 149 149 149 148 148 148 150 150 141 115 99 107 126 127 124 119 117 113 110 107 105 102 100 97
144 149 151 155 156 154 153 153 152 151 151 150 147 145 145 146 147 150 153 156 157 157 157 159 161 165 171 173 154 120 121 137 140 141 136 132 126 120 117 115 111 109 107
150 154 155 156 156 155 156 158 155 155 155 152 150 149 148 150 153 155 158 162 163 165 166 169 174 180 189 202 209 172 140 150 153 153 152 148 140 134 130 126 122 120 118
160 164 162 159 158 157 159 158 156 156 158 157 159 158 159 162 165 165 168 169 170 172 175 180 185 191 201 221 237 230 173 166 170 170 167 161 154 148 144 140 136 133 129
165 167 170 167 164 162 157 159 161 161 164 168 171 173 171 172 176 174 174 175 177 179 184 191 194 201 212 228 241 239 216 191 189 186 181 173 166 162 158 156 152 148 144
166 172 174 171 168 169 164 168 169 167 173 179 185 186 180 178 181 183 183 184 183 186 191 197 204 216 226 237 243 245 233 206 197 195 191 183 177 173 171 169 167 164 160
166 172 174 172 171 172 169 173 177 179 184 190 193 196 191 185 185 187 192 193 195 196 199 206 214 223 235 243 246 243 232 211 199 194 192 189 184 181 180 180 180 178 175
172 172 170 171 172 171 174 177 180 187 191 194 198 200 198 194 190 190 194 199 203 205 208 212 217 221 229 234 239 236 228 212 200 195 194 192 190 187 187 190 191 190 188
180 176 172 172 170 173 177 183 185 189 190 194 201 205 201 198 196 194 196 201 208 210 212 216 223 226 232 231 231 227 219 207 200 198 197 195 195 195 195 198 199 198 197
177 181 183 181 177 179 179 182 186 190 192 197 201 204 205 202 199 198 201 205 208 208 208 208 211 219 229 230 230 229 215 205 203 203 201 201 199 200 202 205 205 204 204
180 183 189 189 185 188 186 184 186 188 194 200 202 204 208 207 204 202 206 209 205 204 205 209 207 204 217 226 228 230 225 214 207 206 206 207 206 205 205 209 210 208 208
172 174 180 186 188 189 188 187 192 196 199 203 205 210 212 213 211 208 211 209 202 203 208 208 209 208 210 212 222 232 237 235 221 211 211 212 213 212 210 210 211 211 210
150 155 168 175 186 180 180 190 198 211 211 210 213 215 215 217 216 212 214 209 206 212 214 211 210 214 219 187 192 257 277 251 238 229 216 214 216 216 214 212 210 208 209
136 138 142 154 164 178 194 195 195 199 212 219 221 226 225 224 224 220 215 216 214 218 220 216 210 212 213 185 181 200 268 291 258 233 218 219 219 215 215 214 212 208 206
117 127 135 140 145 163 176 162 142 141 196 225 235 238 237 236 235 231 227 221 220 218 224 222 215 213 221 210 196 182 199 234 260 272 238 230 221 215 219 216 214 212 209
120 107 107 119 116 116 131 139 158 187 211 226 236 245 256 246 244 242 237 231 228 226 226 227 222 220 218 221 217 221 216 187 200 259 272 247 229 223 221 218 215 215 212
104 89 82 86 80 78 96 133 156 185 219 247 261 264 263 266 262 258 249 242 241 237 236 235 229 223 221 223 213 208 226 231 217 226 259 260 258 241 230 228 219 215 214
87 78 78 81 68 60 74 86 127 161 190 220 278 274 275 276 277 282 272 258 251 249 247 245 240 233 230 228 224 210 202 205 210 217 239 240 239 252 253 236 235 226 216
Height
1532 1535 1539 1542 1545 1548 1550 1552 1553 1555 1556 1557 1558 1558 1558 1558 1558 1558 1558 1559 1559 1559 1560 1560 1560 1559 1559 1560 1560 1560 1560 1560 1561 1561 1561 1561 1561 1561 1561 1561 1561 1560 1560
1531 1535 1539 1542 1545 1548 1550 1552 1554 1555 1557 1557 1558 1558 1558 1558 1558 1559 1559 1560 1560 1561 1561 1561 1561 1561 1561 1561 1561 1562 1562 1562 1562 1562 1562 1563 1563 1563 1563 1563 1562 1562 1562
1532 1535 1539 1543 1546 1548 1550 1552 1554 1556 1557 1558 1558 1558 1558 1559 1559 1559 1560 1561 1562 1562 1562 1562 1562 1562 1562 1562 1563 1563 1563 1564 1564 1564 1564 1564 1565 1565 1565 1564 1564 1564 1563
1533 1535 1539 1543 1546 1548 1550 1552 1554 1556 1557 1558 1558 1558 1559 1559 1559 1560 1561 1562 1563 1564 1564 1564 1564 1564 1564 1564 1565 1565 1565 1565 1566 1566 1566 1566 1567 1567 1567 1566 1566 1566 1565
1534 1536 1539 1543 1546 1548 1551 1552 1554 1556 1557 1558 1558 1559 1559 1560 1560 1561 1562 1563 1564 1565 1565 1566 1566 1566 1566 1566 1566 1567 1567 1567 1567 1568 1568 1568 1568 1568 1568 1568 1568 1567 1567
1534 1537 1540 1543 1546 1549 1551 1552 1554 1555 1557 1558 1558 1559 1560 1560 1561 1562 1563 1564 1565 1566 1567 1567 1567 1568 1568 1568 1568 1568 1569 1569 1569 1569 1570 1570 1570 1570 1570 1569 1569 1569 1568
1533 1537 1540 1544 1546 1549 1551 1552 1554 1555 1557 1558 1559 1560 1560 1561 1562 1563 1564 1565 1566 1567 1568 1569 1569 1569 1570 1570 1570 1570 1570 1571 1571 1571 1571 1571 1571 1571 1571 1570 1570 1569 1569
1534 1537 1541 1544 1546 1549 1551 1552 1554 1555 1557 1558 1559 1560 1561 1562 1563 1564 1565 1566 1567 1568 1569 1570 1570 1571 1571 1571 1571 1571 1572 1572 1572 1572 1572 1572 1572 1572 1571 1571 1570 1569 1569
1535 1537 1541 1544 1547 1549 1551 1552 1554 1555 1557 1558 1559 1560 1562 1563 1564 1565 1566 1567 1568 1569 1570 1571 1571 1572 1572 1573 1573 1572 1573 1573 1573 1573 1573 1573 1572 1572 1571 1571 1570 1569 1568
1536 1538 1541 1544 1546 1548 1551 1552 1554 1555 1557 1558 1559 1561 1562 1563 1564 1565 1566 1567 1568 1569 1570 1571 1572 1572 1573 1573 1573 1573 1573 1573 1573 1573 1573 1573 1573 1572 1571 1571 1570 1569 1568
1536 1538 1541 1543 1546 1548 1550 1552 1554 1555 1557 1558 1559 1561 1562 1563 1564 1565 1566 1567 1568 1569 1570 1571 1572 1572 1573 1573 1574 1573 1573 1573 1574 1574 1573 1573 1573 1572 1572 1571 1570 1569 1568
1535 1537 1540 1543 1545 1547 1549 1551 1553 1555 1556 1558 1559 1560 1562 1563 1564 1565 1566 1567 1568 1569 1570 1571 1571 1572 1573 1573 1573 1573 1573 1573 1573 1573 1573 1573 1573 1572 1571 1570 1570 1569 1568
1534 1537 1539 1542 1544 1546 1548 1550 1552 1554 1555 1557 1558 1560 1561 1562 1563 1564 1566 1567 1568 1568 1569 1570 1571 1571 1572 1572 1573 1573 1572 1572 1572 1572 1572 1572 1572 1571 1571 1570 1569 1568 1568
1534 1536 1538 1541 1543 1545 1548 1549 1551 1553 1554 1556 1557 1558 1560 1561 1562 1564 1565 1566 1567 1568 1568 1569 1570 1570 1571 1571 1571 1572 1571 1571 1571 1571 1571 1571 1571 1571 1570 1569 1569 1568 1567
1533 1535 1538 1540 1542 1544 1546 1548 1549 1551 1553 1554 1556 1557 1558 1560 1561 1562 1563 1564 1565 1566 1567 1568 1568 1568 1569 1569 1570 1570 1570 1570 1570 1570 1570 1570 1570 1569 1569 1568 1568 1567 1566
1531 1534 1536 1538 1540 1542 1544 1546 1547 1549 1551 1553 1554 1556 1557 1558 1559 1560 1561 1562 1563 1564 1565 1566 1566 1566 1567 1567 1567 1567 1568 1568 1567 1568 1568 1568 1568 1567 1567 1566 1566 1565 1565
1530 1532 1534 1536 1539 1540 1542 1544 1546 1547 1549 1550 1552 1554 1555 1556 1557 1558 1558 1559 1561 1562 1562 1563 1563 1564 1564 1564 1564 1564 1565 1565 1565 1565 1565 1565 1565 1565 1565 1564 1564 1563 1563
1527 1530 1532 1535 1536 1538 1540 1542 1544 1545 1547 1548 1550 1551 1552 1553 1554 1555 1556 1557 1558 1559 1559 1559 1560 1560 1561 1561 1561 1562 1562 1562 1562 1562 1562 1562 1562 1562 1562 1562 1561 1561 1560
1525 1527 1530 1532 1534 1536 1538 1540 1541 1543 1544 1545 1547 1548 1549 1550 1551 1552 1553 1554 1555 1555 1555 1556 1556 1557 1557 1558 1558 1558 1559 1559 1559 1559 1558 1558 1559 1559 1559 1559 1558 1558 1558
1522 1524 1526 1528 1530 1533 1535 1537 1538 1540 1541 1542 1543 1545 1546 1547 1548 1549 1549 1550 1551 1551 1552 1552 1553 1553 1553 1554 1555 1554 1554 1554 1554 1554 1554 1554 1554 1554 1554 1554 1554 1554 1554
1519 1521 1523 1525 1527 1529 1531 1532 1533 1535 1537 1538 1539 1541 1542 1543 1544 1545 1545 1546 1547 1547 1548 1548 1549 1549 1549 1550 1550 1550 1549 1549 1549 1549 1549 1548 1548 1549 1549 1549 1549 1549 1550
1515 1517 1519 1521 1523 1525 1526 1528 1530 1531 1533 1534 1536 1536 1537 1538 1539 1540 1541 1541 1542 1542 1543 1543 1544 1544 1544 1545 1545 1545 1543 1543 1541 1542 1542 1542 1542 1542 1542 1542 1543 1543 1544
1512 1514 1516 1517 1519 1521 1522 1524 1526 1527 1528 1530 1530 1531 1533 1533 1534 1535 1535 1536 1536 1537 1537 1537 1538 1538 1538 1539 1540 1540 1538 1535 1536 1535 1535 1535 1535 1535 1535 1536 1536 1536 1537
1508 1510 1512 1514 1515 1517 1518 1519 1521 1522 1523 1524 1525 1526 1528 1528 1529 1529 1530 1530 1530 1531 1531 1531 1532 1532 1532 1532 1532 1532 1532 1531 1531 1528 1529 1529 1529 1529 1529 1529 1529 1529 1530
1505 1506 1508 1510 1511 1512 1514 1515 1516 1517 1518 1519 1520 1521 1522 1522 1523 1523 1524 1524 1524 1524 1524 1525 1525 1525 1525 1525 1525 1525 1525 1525 1524 1524 1522 1522 1522 1522 1522 1522 1521 1522 1522
1501 1503 1505 1506 1507 1508 1509 1510 1511 1512 1513 1514 1515 1515 1516 1517 1517 1517 1517 1517 1518 1518 1518 1518 1518 1519 1518 1518 1519 1518 1519 1518 1517 1517 1516 1514 1514 1515 1515 1515 1514 1514 1514